Location: Unspecified
(35.6961°N, 0.0000°E)
Time: 01:54:56
(UTC+00:00)

Explorer 11/Cluster Stage 4 - Pass Details

Date: 23 May 2019
Orbit: 467 x 1260 km, 28.8° (Epoch: 16 June)

Event Time Altitude Azimuth Distance (km) Brightness Sun altitude
Rises 07:12:57 0° 259° (W) 2,598 8.7 26.9°
Reaches altitude 10° 07:15:45 10° 239° (WSW) 1,647 7.8 27.5°
Maximum altitude 07:18:17 18° 196° (SSW) 1,221 7.5 28.0°
Drops below altitude 10° 07:20:46 10° 152° (SSE) 1,605 8.6 28.5°
Sets 07:23:27 0° 132° (SE) 2,502 9.8 29.1°
